Weather History for Clarksburg, WV

Change the Weather History Date:

Friday, December 23, 2011

  Actual Average Record
Temperature  
Mean Temperature 42 °F -  
Max Temperature 46 °F 42 °F 67 °F (1949)
Min Temperature 36 °F 23 °F -11 °F (1989)
Degree Days  
Heating Degree Days 24    
Moisture  
Dew Point 36 °F    
Average Humidity 88    
Maximum Humidity 93    
Minimum Humidity 73    
Precipitation  
Precipitation 0.06 in - - ()
Sea Level Pressure  
Sea Level Pressure 30.14 in    
Wind  
Wind Speed 7 mph (West)    
Max Wind Speed 12 mph    
Max Gust Speed 18 mph    
Visibility 9 miles    
Events Rain    
Averages and records for this station are not official NWS values.
T = Trace of Precipitation, MM = Missing Value Source: NWS Daily Summary

Daily Weather History Graph

Daily Weather History Graph

Search for Another Location

Airport:

Trip Planner

Search our weather history database for the weather conditions in past years. The results will help you decide how hot, cold, wet, or windy it might be!

Date:

Astronomy

Dec. 23, 2011 Rise Set
Actual Time 7:37 AM EST 5:01 PM EST
Civil Twilight 7:07 AM EST 5:32 PM EST
Nautical Twilight 6:34 AM EST 6:05 PM EST
Astronomical Twilight 6:01 AM EST 6:38 PM EST
Moon 6:25 AM EST (12/23) 4:09 PM EST (12/23)
Length of Visible Light 10h 24m
Length of Day
9h 24m
Waning Crescent, 1% of the Moon is Illuminated
Dec 23
Waning Crescent
Dec 24
New
Jan 1
First Quarter
Jan 9
Full
Jan 16
Last Quarter

Hourly Weather History & Observations

Time (EST) Temp. Windchill Dew Point Humidity Pressure Visibility Wind Dir Wind Speed Gust Speed Precip Events Conditions
12:53 AM 46.0 °F 42.5 °F 43.0 °F 89% 29.93 in 10.0 mi NW 6.9 mph - 0.00 in   Overcast
1:13 AM 46.4 °F 42.4 °F 42.8 °F 87% 29.94 in 9.0 mi NW 8.1 mph - 0.00 in Rain Light Rain
1:53 AM 44.1 °F 40.1 °F 41.0 °F 89% 29.97 in 5.0 mi NW 6.9 mph - 0.03 in Rain Light Rain
2:53 AM 42.1 °F 35.7 °F 39.0 °F 89% 30.02 in 10.0 mi NW 11.5 mph - 0.00 in   Overcast
3:03 AM 42.8 °F 38.0 °F 37.4 °F 81% 30.03 in 10.0 mi NW 8.1 mph - 0.00 in Rain Light Rain
3:40 AM 41.0 °F 35.8 °F 37.4 °F 87% 30.05 in 6.0 mi WNW 8.1 mph - 0.00 in Rain Light Rain
3:53 AM 41.0 °F 34.7 °F 37.9 °F 89% 30.05 in 9.0 mi WNW 10.4 mph - 0.00 in Rain Light Rain
4:14 AM 41.0 °F 35.2 °F 37.4 °F 87% 30.06 in 4.0 mi WNW 9.2 mph 18.4 mph 0.00 in   Overcast
4:46 AM 39.2 °F 33.0 °F 37.4 °F 93% 30.07 in 10.0 mi WNW 9.2 mph - 0.00 in   Overcast
4:53 AM 39.9 °F 35.8 °F 37.9 °F 93% 30.07 in 10.0 mi West 5.8 mph - 0.00 in   Overcast
5:00 AM 39.2 °F 33.0 °F 37.4 °F 93% 30.08 in 10.0 mi West 9.2 mph - N/A   Overcast
5:10 AM 39.2 °F 35.0 °F 37.4 °F 93% 30.08 in 10.0 mi West 5.8 mph - 0.00 in Rain Light Rain
5:20 AM 39.2 °F 37.0 °F 37.4 °F 93% 30.07 in 10.0 mi West 3.5 mph - 0.00 in Rain Light Rain
5:32 AM 39.2 °F 35.9 °F 37.4 °F 93% 30.08 in 10.0 mi West 4.6 mph - 0.00 in   Overcast
5:48 AM 39.2 °F 35.0 °F 37.4 °F 93% 30.09 in 10.0 mi West 5.8 mph - 0.00 in   Overcast
5:53 AM 39.9 °F 35.8 °F 37.9 °F 93% 30.10 in 10.0 mi West 5.8 mph - 0.00 in   Overcast
6:03 AM 39.2 °F 35.0 °F 37.4 °F 93% 30.10 in 10.0 mi WNW 5.8 mph - N/A   Overcast
6:13 AM 39.2 °F 34.2 °F 37.4 °F 93% 30.11 in 10.0 mi WNW 6.9 mph - N/A   Overcast
6:53 AM 39.9 °F 35.1 °F 37.0 °F 89% 30.12 in 10.0 mi WNW 6.9 mph - N/A   Overcast
7:53 AM 39.9 °F 35.8 °F 36.0 °F 86% 30.15 in 10.0 mi WNW 5.8 mph - N/A   Overcast
8:33 AM 39.2 °F 34.2 °F 35.6 °F 87% 30.16 in 10.0 mi NW 6.9 mph - N/A   Overcast
8:45 AM 39.2 °F 34.2 °F 35.6 °F 87% 30.17 in 10.0 mi WNW 6.9 mph - N/A   Overcast
8:53 AM 39.0 °F 33.4 °F 35.1 °F 86% 30.17 in 10.0 mi WNW 8.1 mph - N/A   Overcast
9:53 AM 37.9 °F 32.7 °F 35.1 °F 89% 30.21 in 10.0 mi West 6.9 mph - N/A   Overcast
10:10 AM 39.2 °F 33.6 °F 33.8 °F 81% 30.21 in 10.0 mi WNW 8.1 mph - N/A   Overcast
10:53 AM 39.0 °F 32.8 °F 33.1 °F 79% 30.23 in 10.0 mi West 9.2 mph - N/A   Overcast
11:53 AM 39.9 °F 36.7 °F 34.0 °F 79% 30.22 in 10.0 mi West 4.6 mph - N/A   Overcast
1:53 PM 39.9 °F 37.8 °F 34.0 °F 79% 30.19 in 10.0 mi West 3.5 mph - N/A   Overcast
2:53 PM 41.0 °F 38.0 °F 33.1 °F 73% 30.20 in 10.0 mi WNW 4.6 mph - N/A   Overcast
3:53 PM 39.9 °F 35.8 °F 34.0 °F 79% 30.21 in 10.0 mi WSW 5.8 mph - 0.00 in   Overcast
4:53 PM 39.9 °F 36.7 °F 34.0 °F 79% 30.22 in 10.0 mi WSW 4.6 mph - N/A   Overcast
5:25 PM 39.2 °F 35.9 °F 35.6 °F 87% 30.21 in 10.0 mi SSW 4.6 mph - N/A   Overcast
5:53 PM 39.0 °F 35.7 °F 35.1 °F 86% 30.22 in 10.0 mi SW 4.6 mph - N/A   Overcast
6:11 PM 39.2 °F 33.6 °F 35.6 °F 87% 30.22 in 4.0 mi SW 8.1 mph - 0.01 in Rain Light Rain
6:41 PM 37.4 °F 32.8 °F 35.6 °F 93% 30.23 in 10.0 mi SW 5.8 mph - 0.02 in Rain Light Rain
6:53 PM 37.9 °F 32.7 °F 35.1 °F 89% 30.24 in 9.0 mi WSW 6.9 mph - 0.02 in   Overcast
7:53 PM 37.9 °F 35.5 °F 35.1 °F 89% 30.25 in 10.0 mi WSW 3.5 mph - N/A   Overcast
8:06 PM 37.4 °F - 35.6 °F 93% 30.23 in 10.0 mi Calm Calm - N/A   Overcast
8:14 PM 37.4 °F 34.9 °F 35.6 °F 93% 30.24 in 10.0 mi West 3.5 mph - N/A   Overcast
8:53 PM 37.9 °F 34.4 °F 35.1 °F 89% 30.25 in 10.0 mi West 4.6 mph - 0.01 in Rain Light Rain
9:53 PM 37.0 °F 33.3 °F 34.0 °F 89% 30.25 in 10.0 mi West 4.6 mph - N/A   Overcast
10:53 PM 37.0 °F 32.4 °F 33.1 °F 86% 30.26 in 10.0 mi WNW 5.8 mph - N/A   Overcast
11:53 PM 36.0 °F 29.0 °F 33.1 °F 89% 30.27 in 10.0 mi West 9.2 mph - N/A   Overcast